This demonstration page uses our WeatherBlox Daily Observations layout. Learn more.

Left ArrowRight Arrow

39.92423, -83.80882

Hourly Observations for January 12, 2015

Temp ( °F °C ) Dew Point ( °F °C ) Humidity (%) Winds ( mph kmh ) Pressure ( in mb ) Visibility ( mi km ) Precip ( " mm )
12:56 am 00:56 Cloudy with Light Wintry Mix 33 0.5 32 0 96 96 S 6 9 30.29 1026 5 8 0.02 0.51
1:56 am 01:56 Cloudy with Light Wintry Mix 33 0.5 32 0 96 96 S 8 13 30.28 1025 4 6 0.04 1.02
2:07 am 02:07 Cloudy with Light Wintry Mix 34 1 32 0 93 93 S 9 15 30.30 1026 4 6 0.00 0.03
2:56 am 02:56 Cloudy with Light Wintry Mix 33 0.5 32 0 96 96 S 7 11 30.27 1025 5 8 0.03 0.76
3:56 am 03:56 Cloudy with Mist and Fog 33 0.5 32 0 96 96 S 5 7 30.26 1025 5 8 0.01 0.25
4:03 am 04:03 Cloudy with Light Wintry Mix 34 1 34 1 100 100 S 6 9 30.30 1026 4 6 0.00 0.03
4:56 am 04:56 Cloudy with Mist and Fog 33 0.5 33 0.5 100 100 S 5 7 30.25 1025 2 3 0.00 0.03
5:12 am 05:12 Cloudy with Mist and Fog 34 1 34 1 100 100 S 5 7 30.30 1026 2 3 0.00 0.00
5:15 am 05:15 Cloudy with Mist and Fog 34 1 34 1 100 100 S 5 7 30.30 1026 2 3 0.00 0.00
5:56 am 05:56 Cloudy with Mist and Fog 33 0.5 33 0.5 100 100 S 3 6 30.24 1024 2 3 0.01 0.25
6:25 am 06:25 Cloudy with Mist and Fog 34 1 34 1 100 100 S 5 7 30.27 1025 2 3 0.00 0.00
6:56 am 06:56 Cloudy with Mist and Fog 33 0.5 33 0.5 100 100 S 3 6 30.25 1025 2 3 0.00 0.00
7:23 am 07:23 Cloudy with Mist and Fog 34 1 34 1 100 100 Calm 30.27 1025 3 4 0.00 0.00
7:56 am 07:56 Cloudy with Mist and Fog 33 0.5 33 0.5 100 100 Calm 30.25 1025 3 4 0.00 0.00
8:20 am 08:20 Cloudy with Mist and Fog 34 1 34 1 100 100 Calm 30.27 1025 2 2 0.00 0.00
8:29 am 08:29 Cloudy with Mist and Fog 34 1 34 1 100 100 Calm 30.30 1026 1 2 0.00 0.00
8:40 am 08:40 Cloudy with Mist and Fog 34 1 34 1 100 100 Calm 30.27 1025 1 2 0.00 0.00
8:48 am 08:48 Cloudy with Mist and Fog 34 1 34 1 100 100 S 3 6 30.30 1026 1 1 0.00 0.00
8:56 am 08:56 Cloudy with Fog 33 0.5 33 0.5 100 100 S 3 6 30.26 1025 1 1 0.00 0.00
9:09 am 09:09 Cloudy with Mist and Fog 34 1 34 1 100 100 S 5 7 30.30 1026 1 1 0.00 0.00
9:22 am 09:22 Cloudy with Mist and Fog 34 1 34 1 100 100 S 3 6 30.30 1026 1 2 0.00 0.00
9:31 am 09:31 Cloudy with Mist and Fog 34 1 34 1 100 100 S 3 6 30.30 1026 1 1 0.00 0.00
9:56 am 09:56 Cloudy with Light Rain 33 0.5 33 0.5 100 100 S 5 7 30.28 1025 1 1 0.00 0.03
10:03 am 10:03 Cloudy with Light Rain 34 1 34 1 100 100 S 5 7 30.30 1026 1 2 0.00 0.03
10:19 am 10:19 Cloudy with Light Rain 34 1 34 1 100 100 SSW 5 7 30.33 1027 2 2 0.00 0.03
10:56 am 10:56 Cloudy with Light Wintry Mix 33 0.5 33 0.5 100 100 SW 7 11 30.28 1026 1 2 0.02 0.51
11:03 am 11:03 Cloudy with Light Wintry Mix 34 1 34 1 100 100 VRB 5 7 30.30 1026 2 2 0.00 0.03
11:14 am 11:14 Cloudy with Light Rain 34 1 34 1 100 100 SSW 6 9 30.33 1027 3 4 0.01 0.25
11:29 am 11:29 Cloudy with Mist and Fog 34 1 34 1 100 100 W 8 13 30.33 1027 4 6 0.01 0.25
11:56 am 11:56 Cloudy with Mist and Fog 34 1.1 33 0.5 96 96 W 8 13 30.28 1025 6 10 0.01 0.25
12:33 pm 12:33 Cloudy 34 1 32 0 93 93 N 12 19 30.30 1026 8 13 0.00 0.00
12:56 pm 12:56 Cloudy 33 0.5 31 -0.5 93 93 N 14 22 30.27 1025 8 13 0.00 0.00
1:03 pm 13:03 Cloudy 34 1 30 -1 87 87 N 13 20 30.30 1026 8 13 0.00 0.00
1:56 pm 13:56 Cloudy 34 1.1 31 -0.5 89 89 N 10 17 30.27 1025 9 14 0.00 0.00
2:11 pm 14:11 Cloudy 34 1 30 -1 87 87 N 9 15 30.30 1026 8 13 0.00 0.00
2:46 pm 14:46 Cloudy 34 1 28 -2 81 81 N 14 22 30.33 1027 9 14 0.00 0.00
2:56 pm 14:56 Cloudy 33 0.5 29 -1.6 86 86 N 13 20 30.29 1026 8 13 0.00 0.00
3:34 pm 15:34 Cloudy 32 0 28 -2 87 87 N 14 22 30.33 1027 8 13 0.00 0.00
3:56 pm 15:56 Cloudy 32 0 29 -1.6 89 89 N 13 20 30.33 1027 7 11 0.00 0.00
4:13 pm 16:13 Cloudy 32 0 28 -2 87 87 N 14 22 30.36 1028 7 11 0.00 0.00
4:37 pm 16:37 Cloudy 30 -1 28 -2 93 93 N 15 24 30.36 1028 7 11 0.00 0.00
4:56 pm 16:56 Cloudy with Mist and Fog 31 -0.5 28 -2.2 88 88 N 15 24 30.37 1028 5 8 0.00 0.00
5:56 pm 17:56 Cloudy 30 -1.1 25 -3.8 82 82 N 20 31 30.40 1029 7 11 0.00 0.00
6:06 pm 18:06 Cloudy 30 -1 25 -4 80 80 N 15 24 30.42 1030 7 11 0.00 0.00
6:56 pm 18:56 Cloudy 29 -1.6 24 -4.4 81 81 N 14 22 30.44 1031 7 11 0.00 0.00
7:56 pm 19:56 Cloudy 28 -2.2 24 -4.4 85 85 N 14 22 30.46 1032 7 11 0.00 0.00
8:56 pm 20:56 Cloudy 26 -3.3 21 -6.1 81 81 N 18 30 30.49 1032 8 13 0.00 0.00
9:56 pm 21:56 Cloudy 25 -3.8 21 -6.1 84 84 N 12 19 30.52 1033 8 13 0.00 0.00
10:21 pm 22:21 Cloudy 25 -4 19 -7 80 80 NNE 15 24 30.53 1034 9 14 0.00 0.00
10:56 pm 22:56 Cloudy 23 -5 17 -8.3 78 78 NNE 18 30 30.53 1034 10 16 0.00 0.00
11:56 pm 23:56 Cloudy 22 -5.5 16 -8.8 78 78 NNE 12 19 30.54 1034 9 14 0.00 0.03

Powered by AerisWeather